User: anonymous   Login
Location: Bílinka
(49.3579°N, 14.3767°E)
Time: 03:42:08
(UTC+00:00)
Language:

PSLV R/B - Orbit

View from above orbital plane
View from above orbital plane
View from above satellite
View from above satellite

Ground track
Ground track

The orbit is defined by the following mean orbital elements,

1 26960U          26029.66243300 +.00000000 +00000-0 +28337-3 0 00005
2 26960  97.6336 124.2532 0009625 280.3309  79.6908 16.45653777    05
Epoch (UTC): 29 January 2026 15:53:54
Eccentricity: 0.0009625
inclination: 97.6336°
perigee height: 145 km
apogee height: 157 km
right ascension of ascending node: 124.2532°
argument of perigee: 280.3309°
revolutions per day: 16.45653777
mean anomaly at epoch: 79.6908°

The dashed part of the orbit path shows where the satellite is in the earth's shadow,  

DLR